Find Starlink 35950

NORAD ID: 66622 Int'l Des: 2025-271 Owner: SPXS Country: US Constellation: starlink operational
LEOCIRCULAR

实时位置

正在加载3D地球...

关于 Starlink 35950

正在加载描述...

即将过境

Passes for default location (London). Set your location on the main map for personalized predictions.

高度历史

Loading altitude history...

两行轨道根数

1 66622U 25271F 26106.89322848 .00007096 00000-0 25150-3 0 9996
2 66622 53.1581 322.6366 0001402 79.6913 280.4246 15.30199186 23416
Epoch: Apr 16, 2026 • Age: 15 hours

当前状态

高度 477.0 km
速度 7.63 km/s
星下点 33.64°N, 82.35°E
发射日期 Nov 23, 2025
运行时间 0.3 years
类型 internet

技术详情

分类 Payload
质量 575.00 kg
干质量 530.00 kg
总质量 575.00 kg
长度 0.30 m
直径 4.10 m
跨度 29.00 m
形状 Box + pan
制造商 SPXS
平台类型 Starlink V2MO
阶段状态 In Orbit
所有者/国家 SPXS/US

Most Searched